VLG628 LEBL-LEPA

Flight info

Callsign VLG628
Flight time 0h 30m
Altitude 19000
Route LARPA N859 TOLSO
Aircraft A320/M-SDE3FGHIRWY/LB1

Departure

Time 2026-05-06 18:55
Airport Josep Tarradellas Barcelona-El Prat Airport (LEBL)

Arrival

Time 2026-05-06 19:26
Airport Palma de Mallorca Airport (LEPA)
Time Latitude Longitude Altitude Speed Heading
2026-05-06 18:31 41.29062 2.08107 14 ft 0 kts 335°
2026-05-06 18:45 41.29058 2.08109 15 ft 2 kts 336°
2026-05-06 18:45 41.29042 2.08117 14 ft 2 kts 338°
2026-05-06 18:45 41.29027 2.08123 15 ft 2 kts 348°
2026-05-06 18:46 41.29010 2.08127 14 ft 2 kts
2026-05-06 18:46 41.28994 2.08126 15 ft 2 kts 13°
2026-05-06 18:46 41.28978 2.08119 15 ft 2 kts 30°
2026-05-06 18:46 41.28965 2.08106 16 ft 2 kts 52°
2026-05-06 18:47 41.28956 2.08089 15 ft 1 kts 67°
2026-05-06 18:47 41.28955 2.08086 15 ft 0 kts 65°
2026-05-06 18:48 41.28956 2.08098 18 ft 3 kts 93°
2026-05-06 18:49 41.28939 2.08128 17 ft 5 kts 155°
2026-05-06 18:49 41.28906 2.08148 18 ft 5 kts 155°
2026-05-06 18:49 41.28868 2.08172 20 ft 7 kts 155°
2026-05-06 18:49 41.28838 2.08190 19 ft 5 kts 155°
2026-05-06 18:50 41.28832 2.08194 19 ft 0 kts 155°
2026-05-06 18:50 41.28831 2.08195 18 ft 1 kts 155°
2026-05-06 18:50 41.28823 2.08199 18 ft 0 kts 155°
2026-05-06 18:50 41.28815 2.08204 18 ft 7 kts 154°
2026-05-06 18:51 41.28759 2.08234 19 ft 10 kts 173°
2026-05-06 18:51 41.28712 2.08279 20 ft 9 kts 90°
2026-05-06 18:51 41.28736 2.08361 24 ft 12 kts 65°
2026-05-06 18:51 41.28798 2.08542 20 ft 26 kts 65°
2026-05-06 18:52 41.28876 2.08769 18 ft 28 kts 65°
2026-05-06 18:52 41.28962 2.09021 17 ft 31 kts 64°
2026-05-06 18:52 41.29051 2.09284 19 ft 32 kts 65°
2026-05-06 18:52 41.29145 2.09554 18 ft 33 kts 65°
2026-05-06 18:53 41.29241 2.09839 17 ft 33 kts 66°
2026-05-06 18:53 41.29330 2.10067 14 ft 23 kts 85°
2026-05-06 18:53 41.29302 2.10171 14 ft 10 kts 109°
2026-05-06 18:53 41.29298 2.10181 14 ft 0 kts 116°
2026-05-06 18:54 41.29290 2.10201 15 ft 5 kts 116°
2026-05-06 18:54 41.29269 2.10275 12 ft 12 kts 118°
2026-05-06 18:54 41.29203 2.10277 14 ft 12 kts 236°
2026-05-06 18:54 41.29147 2.10109 13 ft 44 kts 245°
2026-05-06 18:55 41.28919 2.09450 14 ft 110 kts 245°
2026-05-06 18:55 41.28536 2.08337 30 ft 155 kts 242°
2026-05-06 18:55 41.28059 2.06962 420 ft 166 kts 242°
2026-05-06 18:55 41.27291 2.05876 1036 ft 164 kts 197°
2026-05-06 18:56 41.26172 2.05705 1595 ft 169 kts 182°
2026-05-06 18:56 41.24930 2.05716 1954 ft 188 kts 180°
2026-05-06 18:56 41.23544 2.05740 2285 ft 210 kts 181°
2026-05-06 18:56 41.22053 2.05745 2943 ft 217 kts 182°
2026-05-06 18:57 41.20533 2.05726 3690 ft 221 kts 184°
2026-05-06 18:57 41.18969 2.05714 4327 ft 234 kts 177°
2026-05-06 18:57 41.17328 2.06371 4712 ft 261 kts 158°
2026-05-06 18:57 41.15588 2.07316 5304 ft 276 kts 159°
2026-05-06 18:58 41.13779 2.08267 6139 ft 282 kts 159°
2026-05-06 18:58 41.11941 2.09229 7000 ft 286 kts 159°
2026-05-06 18:58 41.10081 2.10195 7847 ft 289 kts 160°
2026-05-06 18:58 41.08193 2.11172 8704 ft 293 kts 160°
2026-05-06 18:59 41.06289 2.12161 9554 ft 296 kts 160°
2026-05-06 18:59 41.04358 2.13167 10257 ft 304 kts 160°
2026-05-06 18:59 41.02312 2.14235 10478 ft 328 kts 160°
2026-05-06 18:59 41.00123 2.15378 10732 ft 346 kts 160°
2026-05-06 19:00 40.97861 2.16559 11342 ft 353 kts 160°
2026-05-06 19:00 40.95563 2.17761 12034 ft 356 kts 160°
2026-05-06 19:00 40.93248 2.18972 12733 ft 360 kts 160°
2026-05-06 19:00 40.91698 2.19782 13193 ft 362 kts 160°
2026-05-06 19:01 40.88547 2.21429 14101 ft 367 kts 160°
2026-05-06 19:01 40.86162 2.22671 14715 ft 370 kts 161°
2026-05-06 19:01 40.83756 2.23923 15325 ft 373 kts 161°
2026-05-06 19:01 40.81329 2.25182 15922 ft 376 kts 162°
2026-05-06 19:02 40.78913 2.26434 16517 ft 379 kts 162°
2026-05-06 19:02 40.76447 2.27711 17126 ft 382 kts 162°
2026-05-06 19:02 40.73963 2.28998 17735 ft 386 kts 163°
2026-05-06 19:02 40.71457 2.30302 18353 ft 389 kts 163°
2026-05-06 19:03 40.68930 2.31618 18784 ft 391 kts 163°
2026-05-06 19:03 40.66393 2.32934 18914 ft 393 kts 163°
2026-05-06 19:03 40.63790 2.34273 18950 ft 408 kts 163°
2026-05-06 19:03 40.61075 2.35343 18948 ft 406 kts 175°
2026-05-06 19:04 40.58280 2.35613 18955 ft 403 kts 182°
2026-05-06 19:04 40.55476 2.35746 18953 ft 403 kts 182°
2026-05-06 19:04 40.52673 2.35869 18953 ft 403 kts 182°
2026-05-06 19:04 40.49876 2.35985 18952 ft 403 kts 182°
2026-05-06 19:05 40.47077 2.36092 18951 ft 403 kts 182°
2026-05-06 19:05 40.44272 2.36196 18955 ft 403 kts 182°
2026-05-06 19:05 40.41476 2.36299 18954 ft 403 kts 182°
2026-05-06 19:05 40.38669 2.36405 18955 ft 403 kts 182°
2026-05-06 19:06 40.35864 2.36510 18953 ft 403 kts 182°
2026-05-06 19:06 40.33067 2.36616 18928 ft 401 kts 182°
2026-05-06 19:06 40.30321 2.36726 18686 ft 390 kts 182°
2026-05-06 19:06 40.27648 2.36835 18445 ft 379 kts 182°
2026-05-06 19:07 40.25037 2.36939 18205 ft 371 kts 182°
2026-05-06 19:07 40.23333 2.37005 18033 ft 369 kts 182°
2026-05-06 19:07 40.19938 2.37130 17673 ft 367 kts 182°
2026-05-06 19:07 40.17405 2.37223 17272 ft 362 kts 182°
2026-05-06 19:08 40.14898 2.37318 16769 ft 358 kts 182°
2026-05-06 19:08 40.12419 2.37414 16266 ft 356 kts 182°
2026-05-06 19:08 40.09953 2.37510 15764 ft 353 kts 182°
2026-05-06 19:08 40.07502 2.37605 15259 ft 351 kts 181°
2026-05-06 19:09 40.05063 2.37697 14757 ft 350 kts 181°
2026-05-06 19:09 40.02629 2.37789 14250 ft 349 kts 181°
2026-05-06 19:09 40.00210 2.37881 13751 ft 347 kts 181°
2026-05-06 19:09 39.97798 2.37973 13207 ft 346 kts 181°
2026-05-06 19:10 39.96209 2.38034 12871 ft 344 kts 181°
2026-05-06 19:10 39.93022 2.38155 12207 ft 341 kts 180°
2026-05-06 19:10 39.91451 2.38213 11873 ft 339 kts 180°
2026-05-06 19:10 39.89100 2.38300 11377 ft 337 kts 180°
2026-05-06 19:11 39.86761 2.38385 10889 ft 336 kts 180°
2026-05-06 19:11 39.84432 2.38472 10466 ft 332 kts 180°
2026-05-06 19:11 39.82165 2.38559 10343 ft 320 kts 180°
2026-05-06 19:11 39.79980 2.38642 10225 ft 309 kts 180°
2026-05-06 19:12 39.77870 2.38722 10099 ft 298 kts 180°
2026-05-06 19:12 39.75812 2.38800 9890 ft 292 kts 180°
2026-05-06 19:12 39.73789 2.38877 9726 ft 291 kts 180°
2026-05-06 19:12 39.71762 2.38953 9359 ft 291 kts 180°
2026-05-06 19:13 39.69739 2.39026 8970 ft 290 kts 180°
2026-05-06 19:13 39.67722 2.39098 8580 ft 290 kts 179°
2026-05-06 19:13 39.65699 2.39173 8188 ft 290 kts 179°
2026-05-06 19:13 39.63679 2.39251 7797 ft 290 kts 179°
2026-05-06 19:14 39.61662 2.39316 7405 ft 290 kts 182°
2026-05-06 19:14 39.59712 2.38763 7006 ft 288 kts 207°
2026-05-06 19:14 39.58187 2.37187 6625 ft 286 kts 233°
2026-05-06 19:14 39.57296 2.34903 6231 ft 285 kts 250°
2026-05-06 19:15 39.56659 2.32466 5817 ft 285 kts 252°
2026-05-06 19:15 39.56052 2.30020 5409 ft 285 kts 252°
2026-05-06 19:15 39.55450 2.27565 5008 ft 285 kts 252°
2026-05-06 19:15 39.54854 2.25114 4604 ft 285 kts 252°
2026-05-06 19:16 39.54217 2.22717 4185 ft 275 kts 242°
2026-05-06 19:16 39.53037 2.20872 3786 ft 264 kts 213°
2026-05-06 19:16 39.51371 2.20018 3397 ft 255 kts 184°
2026-05-06 19:16 39.49680 2.20347 3060 ft 243 kts 152°
2026-05-06 19:17 39.48463 2.21720 3011 ft 227 kts 120°
2026-05-06 19:17 39.47913 2.23615 3017 ft 225 kts 104°
2026-05-06 19:17 39.47570 2.25591 3019 ft 225 kts 98°
2026-05-06 19:17 39.47446 2.27611 3023 ft 225 kts 93°
2026-05-06 19:18 39.47390 2.29608 3015 ft 215 kts 92°
2026-05-06 19:18 39.47349 2.31492 3022 ft 206 kts 92°
2026-05-06 19:18 39.47288 2.33341 3019 ft 205 kts 94°
2026-05-06 19:18 39.47200 2.35186 3027 ft 205 kts 94°
2026-05-06 19:19 39.47106 2.37031 3023 ft 205 kts 94°
2026-05-06 19:19 39.47011 2.38875 3026 ft 205 kts 94°
2026-05-06 19:19 39.46917 2.40715 3026 ft 205 kts 94°
2026-05-06 19:19 39.46827 2.42507 3024 ft 196 kts 94°
2026-05-06 19:20 39.46743 2.44224 3023 ft 188 kts 94°
2026-05-06 19:20 39.46660 2.45912 2926 ft 187 kts 94°
2026-05-06 19:20 39.46577 2.47576 2788 ft 185 kts 94°
2026-05-06 19:20 39.46497 2.49213 2739 ft 179 kts 94°
2026-05-06 19:21 39.46420 2.50798 2753 ft 175 kts 94°
2026-05-06 19:21 39.46353 2.52339 2715 ft 167 kts 90°
2026-05-06 19:21 39.46566 2.53794 2671 ft 165 kts 69°
2026-05-06 19:21 39.47124 2.55090 2629 ft 165 kts 60°
2026-05-06 19:22 39.47725 2.56351 2562 ft 165 kts 59°
2026-05-06 19:22 39.48326 2.57612 2401 ft 164 kts 60°
2026-05-06 19:22 39.48920 2.58860 2191 ft 161 kts 60°
2026-05-06 19:22 39.49477 2.60031 2010 ft 147 kts 59°
2026-05-06 19:23 39.50002 2.61136 1824 ft 142 kts 60°
2026-05-06 19:23 39.50516 2.62218 1641 ft 140 kts 60°
2026-05-06 19:23 39.51026 2.63292 1443 ft 139 kts 60°
2026-05-06 19:23 39.51534 2.64362 1250 ft 139 kts 60°
2026-05-06 19:24 39.52040 2.65429 1067 ft 139 kts 59°
2026-05-06 19:24 39.52546 2.66498 878 ft 139 kts 58°
2026-05-06 19:24 39.53047 2.67563 693 ft 138 kts 58°
2026-05-06 19:24 39.53551 2.68626 512 ft 138 kts 57°
2026-05-06 19:25 39.54054 2.69679 313 ft 138 kts 57°
2026-05-06 19:25 39.54550 2.70731 134 ft 137 kts 58°
2026-05-06 19:25 39.55035 2.71756 30 ft 120 kts 58°
2026-05-06 19:25 39.55386 2.72480 20 ft 72 kts 58°
2026-05-06 19:26 39.55608 2.72946 20 ft 52 kts 59°
2026-05-06 19:26 39.55724 2.73306 18 ft 31 kts 101°
2026-05-06 19:26 39.55701 2.73409 18 ft 1 kts 99°
2026-05-06 19:26 39.55697 2.73419 21 ft 1 kts 133°
2026-05-06 19:27 39.55679 2.73426 19 ft 14 kts 161°
2026-05-06 19:27 39.55599 2.73450 20 ft 6 kts 102°
2026-05-06 19:27 39.55578 2.73532 20 ft 15 kts 141°
2026-05-06 19:27 39.55485 2.73610 21 ft 17 kts 151°
2026-05-06 19:28 39.55326 2.73737 22 ft 31 kts 148°
2026-05-06 19:28 39.55136 2.73882 27 ft 32 kts 149°
2026-05-06 19:28 39.54944 2.74032 28 ft 31 kts 148°
2026-05-06 19:28 39.54788 2.74115 29 ft 15 kts 204°
2026-05-06 19:29 39.54747 2.74030 30 ft 12 kts 235°
2026-05-06 19:29 39.54695 2.73930 30 ft 15 kts 238°
2026-05-06 19:29 39.54627 2.73789 31 ft 20 kts 238°
2026-05-06 19:29 39.54599 2.73645 32 ft 16 kts 302°
2026-05-06 19:30 39.54583 2.73513 31 ft 12 kts 238°
2026-05-06 19:30 39.54536 2.73415 33 ft 14 kts 238°
2026-05-06 19:30 39.54484 2.73306 34 ft 11 kts 239°
2026-05-06 19:30 39.54508 2.73284 33 ft 6 kts 348°
2026-05-06 19:31 39.54537 2.73275 33 ft 0 kts 347°